Regional Weather Roundup
Issued by NWS Newport/Morehead, NC

Current Version | Previous Version | Graphics & Text | Print | Product List | Glossary On
Versions: 1 2 3 4 5 6 7 8 9 10 11 12 13 14 15 16 17 18 19 20 21 22 23 24 25 26 27 28 29 30 31 32 33 34 35 36 37 38 39 40 41 42 43 44 45 46 47 48 49 50
959 ASUS42 KMHX 280613 RWRMHX WEATHER ROUNDUP FOR EASTERN NORTH CAROLINA NATIONAL WEATHER SERVICE NEWPORT/MOREHEAD CITY NC 200 AM EDT THU JUL 28 2016 NOTE: "FAIR" INDICATES FEW OR NO CLOUDS BELOW 12,000 FEET WITH NO SIGNIFICANT WEATHER AND/OR OBSTRUCTIONS TO VISIBILITY NCZ015>017-031-032-045>047-102-103-280700- NORTH COAST CITY SKY/WX TMP DP RH WIND PRES REMARKS EDENTON PTCLDY 82 73 72 W5 29.93F ELIZABETH CITY PTCLDY 79 75 87 W7 29.92F KITTY HAWK CLOUDY 82 74 78 W3 29.92F MANTEO N/A 80 76 89 NW6 29.93F $$ NCZ045>047-081-094-103-104-280700- CENTRAL COAST CITY SKY/WX TMP DP RH WIND PRES REMARKS FRISCO CLOUDY 80 75 84 W6 29.91F $$ NCZ095-097-098-100-101-280700- SOUTHERN COAST CITY SKY/WX TMP DP RH WIND PRES REMARKS BEAUFORT CLOUDY 78 73 84 NW6 N/A CEDAR ISLAND NOT AVBL JACKSONVILLE CLEAR 80 73 79 SW3 29.94F PINEY ISLAND NOT AVBL WILMINGTON CLEAR 82 79 90 SW9 29.94F $$ NCZ011>013-027>030-043-044-078>080-089-090>093-098-280700- COASTAL PLAIN CITY SKY/WX TMP DP RH WIND PRES REMARKS AHOSKIE PTCLDY 76 75 96 CALM 29.93F CLINTON CLEAR 80 79 95 CALM 29.95F ELIZABETHTOWN CLEAR 82 78 88 S5 29.95F GOLDSBORO PTCLDY 81 81 100 SE3 29.94S GREENVILLE CLEAR 79 73 83 SW7 29.96F HAVELOCK CLOUDY 75 71 87 SW5 29.95R KENANSVILLE NOT AVBL KINSTON PTCLDY 78 73 84 S7 29.96F NEW BERN CLOUDY 75 72 90 W5 29.95F RICHLANDS CLEAR 79 76 90 CALM 29.96F ROCKY MOUNT PTCLDY 77 76 96 CALM 29.94F WASHINGTON CLOUDY 76 73 90 SW7 29.93F WHITEVILLE CLEAR 81 77 90 CALM 29.95S $$ AMZ130-135-150-152-154-156-158-170-250-252-270-ANZ085-086-088-633-658-670-280700- MARINE OBSERVATIONS STATION/POSITION TIME TEMP WIND PRES WAVE SWELL AIR SEA DIR/SP/G HT/PER HT/PER (UTC) (F) (DEG/KT/KT) (MB) (FT/S) (FT/S) CHESAPEAKE LIGHT NOT AVBL 64 E VA BEACH 0550 83 82 220/ 10/ 14 1012.7 2/ 6 2/ 6 DUCK 0500 83 66 250/ 10/ 16 1012.9 2 E DUCK 0511 71 N/A 1/ 8 OREGON INLET 0500 81 81 240/ 15/ 18 1013.5 13E OREGON INLT 0600 81 N/A 2/ 8 2/ 8 HATTERAS CG 0500 83 83 260/ 14/ 18 1012.6 DIAMOND BUOY 0550 86 84 270/ 10/ 12 1012.8 4/ 6 2/ 6 CAPE LOOKOUT 0600 82 280/ 5/ 5 1013.1 BEAUFORT LAB 0500 79 83 260/ 4/ 7 1012.3 30 SE NEW RVR IN 0508 84 85 100/ 4/ 8 1014.6 30 SE NEW RVR IN 0525 84 N/A 4/ 5 27 SE WRIGHTSVLE 0508 84 84 220/ 14/ 17 1014.6 5 SE WRIGHTSVLE NOT AVBL 225 S CAPE HAT 0550 84 85 260/ 12/ 12 1016.1 3/ 6 2/ 6 41 SE CHARLESTON 0550 86 86 220/ 17/ 19 1015.0 4/ 4 2/ 8 $$

USA.gov is the U.S. government's official web portal to all federal, state and local government web resources and services.